Regional Weather Roundup
Issued by NWS

Home | Current Version | Previous Version | Text Only | Print | Product List | Glossary Off
Versions: 1 2 3 4 5 6 7 8 9 10 11 12 13 14 15 16 17 18 19 20 21 22 23 24 25 26 27 28 29 30 31 32 33 34 35 36 37 38 39 40 41 42 43 44 45 46 47 48 49 50

000
ASUS45 KBOU 030607
RWRCO

WEATHER ROUNDUP FOR COLORADO
NATIONAL WEATHER SERVICE DENVER/BOULDER CO
1200 AM MDT THU SEP 03 2015

NOTE: "FAIR" INDICATES FEW OR NO CLOUDS BELOW 12000 FEET WITH NO
SIGNIFICANT WEATHER AND/OR OBSTRUCTIONS TO VISIBILITY.

COZ001>005-013-030-031-030700-
...NORTHWEST COLORADO...

CITY           SKY/WX    TMP DP  RH WIND       PRES   REMARKS
CRAIG          PTCLDY    55  48  77 CALM      30.13S
HAYDEN         NOT AVBL
MEEKER         CLEAR     56  48  74 NE6       30.14F
MOUNT WERNER   NOT AVBL
STEAMBOAT SPGS PTCLDY    55  46  70 CALM      30.18S
WALDEN         PTCLDY    48  39  71 SE8       30.27S
$$

COZ006>008-011-030700-
...WEST CENTRAL VALLEYS...

CITY           SKY/WX    TMP DP  RH WIND       PRES   REMARKS
GRAND JUNCTION PTCLDY    72  50  45 E12       30.03S
MONTROSE       MOCLDY    66  49  54 SE10      30.15S
EAGLE          PTCLDY    61  48  63 E5        30.20S
RIFLE          PTCLDY    63  51  65 CALM      30.10S
DELTA          MOCLDY    70  50  50 CALM      30.09S
NUCLA          MOCLDY    68  43  40 E3        30.19R
$$

COZ017>023-064>068-030700-
...SOUTHWEST COLORADO...

CITY           SKY/WX    TMP DP  RH WIND       PRES   REMARKS
DURANGO        CLOUDY    63  47  55 CALM      30.25F
CORTEZ         CLOUDY    62  56  80 NE6       30.18F
PAGOSA SPRINGS CLOUDY    61  46  59 NE5       30.35S THUNDER
TELLURIDE      PTCLDY    55  47  73 S3        30.40F
WOLF CREEK PAS NOT AVBL
$$

COZ009-010-012-014-032>034-037-058>063-030700-
...CENTRAL COLORADO...

CITY           SKY/WX    TMP DP  RH WIND       PRES   REMARKS
ASPEN          PTCLDY    57  43  59 SW8       30.27S
BUENA VISTA    PTCLDY    54  39  57 CALM      30.30S
COPPER MTN     PTCLDY    54  36  50 S13       30.59S
BERTHOUD PASS  FAIR      43  32  65 NW13G20   30.62S
COTTONWOOD PAS PTCLDY    59  34  38 S3        30.43S
GUNNISON       PTCLDY    52  46  82 CALM      30.34S
KREMMLING      MOCLDY    55  43  62 CALM      30.25S
LEADVILLE      PTCLDY    42  41  96 NE5       30.43S
MONARCH PASS   PTCLDY    45  34  65 SW20      30.68F
SALIDA         PTCLDY    66  40  38 W8        30.34S
SUNLIGHT       PTCLDY    50  43  76 CALM      30.50F
WILKERSON PASS MOCLDY    50  34  53 W6        30.54F
$$

COZ069>075-030700-
...SAN LUIS VALLEY/SANGRE DE CRISTO MOUNTAINS...

CITY           SKY/WX    TMP DP  RH WIND       PRES   REMARKS
ALAMOSA        CLOUDY    57  50  77 SW7       30.30F
LA VETA PASS   MOCLDY    46  39  76 S16G25    30.44F
SAGUACHE       MOCLDY    52  43  71 NW6       30.34S
$$

COZ035-036-038>040-030700-
...NORTHERN COLORADO FRONT RANGE...

CITY           SKY/WX    TMP DP  RH WIND       PRES   REMARKS
DENVER INTL AP MOCLDY    73  41  31 SW10      30.03F
DMNS CITY PARK   N/A     69  49  50 E9        30.03F
AURORA         PTCLDY    70  44  40 S8        30.06S
FRONT RANGE AP NOT AVBL
ERIE MUNI ARPT PTCLDY    67  44  44 S6        30.02R
BOULDER MUN AP PTCLDY    75  36  23 SW5       30.02R
CENTENNIAL     MOCLDY    69  43  38 CALM      30.07F
BROOMFIELD     PTCLDY    70  41  35 W6        30.05F
FORT COLLINS   PTCLDY    66  48  52 N8        30.01S
LONGMONT       PTCLDY    64  47  54 W6        30.02S
$$

COZ041-046-047-076>085-087-088-030700-
...PIKES PEAK/PALMER DIVIDE AND SOUTHERN FOOTHILLS...

CITY           SKY/WX    TMP DP  RH WIND       PRES   REMARKS
COLO. SPRINGS  MOCLDY    69  44  40 NW5       30.12F
A. F. ACADEMY  MOCLDY    60  45  59 N8        30.14F
ELLICOTT       MOCLDY   N/A N/A N/A SE3       30.09F
FALCON         MOCLDY    63  44  50 MISG      30.17F
FORT CARSON    MOCLDY    68  46  46 N10       30.07F
LIMON          MOCLDY    56  47  71 N7        30.04F
MONUMENT HILL  MOCLDY    61  41  48 SW8       30.18F
TRINIDAD       MOCLDY    72  47  40 W7        30.10S
$$

COZ042>045-048>051-090-091-030700-
...NORTHEAST COLORADO...

CITY           SKY/WX    TMP DP  RH WIND       PRES   REMARKS
GREELEY ARPT   PTCLDY    61  52  72 NW3       29.99F
AKRON          PTCLDY    71  39  31 S8        29.98F
BURLINGTON     MOCLDY    65  50  58 S7        29.96S
WRAY           CLOUDY    65  52  63 W5        29.90F
STERLING       PTCLDY    61  48  63 W6        29.92F
HOLYOKE        CLEAR     66  59  77 W6        29.91S
FORT MORGAN    PTCLDY    64  43  45 W8        29.98S
$$

COZ086-089-092>099-030700-
...SOUTHEAST COLORADO...

CITY           SKY/WX    TMP DP  RH WIND       PRES   REMARKS
PUEBLO         CLOUDY    74  44  34 NW8       29.98F
LA JUNTA       MOCLDY    77  46  33 SW13      29.96F
LAMAR          MOCLDY    70  54  56 SW8       29.91S
SPRINGFIELD      N/A     72  52  49 S9        29.99F
$$




USA.gov is the U.S. government's official web portal to all federal, state and local government web resources and services.